Regional Weather Roundup
Issued by NWS Cleveland, OH

Home | Current Version | Previous Version | Graphics & Text | Print | Product List | Glossary On
Versions: 1 2 3 4 5 6 7 8 9 10 11 12 13 14 15 16 17 18 19 20 21 22 23 24 25 26 27 28 29 30 31 32 33 34 35 36 37 38 39 40 41 42 43 44 45 46 47 48 49 50
000
ASUS41 KCLE 010810
RWRCLE
OHIO REGIONAL WEATHER ROUNDUP
NATIONAL WEATHER SERVICE WILMINGTON, OH
400 AM EDT WED JUL 01 2015

NOTE: "FAIR" INDICATES FEW OR NO CLOUDS BELOW 12,000 FEET WITH NO
SIGNIFICANT WEATHER AND/OR OBSTRUCTIONS TO VISIBILITY.

OHZ001>008-015>018-024>027-034-035-043-044-010900-
   NORTHWEST OHIO

CITY           SKY/WX    TMP DP  RH WIND       PRES   REMARKS
DEFIANCE       CLOUDY    61  58  90 W6        29.86R
FINDLAY        MOCLDY    61  58  90 W8        29.84R
TOLEDO EXPRESS CLEAR     60  58  92 W8        29.82S
TOLEDO EXEC    PTCLDY    61  58  90 W7        29.83R
LIMA           CLEAR     60  57  89 W8        29.86S
$$

OHZ009>014-019>023-028>033-038-089-010900-
   NORTHEAST OHIO

CITY           SKY/WX    TMP DP  RH WIND       PRES   REMARKS
CLE-HOPKINS    PTCLDY    63  60  90 SW7       29.81S
CLE-LAKEFRONT  PTCLDY    65  61  87 SW12      29.78R
CUY CO. ARPT   NOT AVBL
LORAIN-ELYRIA  PTCLDY    63  60  90 W8        29.81R
ASHTABULA      MOCLDY    62  61  96 S5        29.77F
AKRON-CANTON   CLOUDY    63  60  90 SW9       29.82S FOG
WOOSTER        CLEAR     62  60  93 W6        29.83S FOG
MANSFIELD      MOCLDY    62  60  93 W7        29.84R
YOUNGSTOWN     CLOUDY    63  62  97 SW13      29.80S FOG
$$

OHZ042-051>053-060>062-070>072-077>081-010900-
  SOUTHWEST OHIO

CITY           SKY/WX    TMP DP  RH WIND       PRES   REMARKS
CINC-COVINGTON CLEAR     63  61  93 CALM      29.89R FOG
CINC-LUNKEN    FOG       60  57  89 CALM      29.89R VSB 1/2
HAMILTON       CLEAR     61  60  97 CALM      29.89S FOG
DAYTON         MOCLDY    64  60  87 W6        29.88F
WRIGHT-PAT AFB CLEAR     63  63 100 W5        29.87S
DAYTON GENERAL CLEAR     62  61  96 CALM      29.88S FOG
WILMINGTON     CLEAR     62  60  93 W7        29.88S FOG
$$

OHZ036-037-039>041-045>050-054>059-063>069-073>076-082>088-010900-
  CENTRAL AND SOUTHEAST OHIO

CITY           SKY/WX    TMP DP  RH WIND       PRES   REMARKS
COLUMBUS       PTCLDY    61  61 100 CALM      29.85S FOG
OSU AIRPORT    PTCLDY    61  60  97 W3        29.86R FOG
BOLTON FIELD   CLEAR     62  62  99 W5        29.86S FOG
RICKENBACK AFB PTCLDY    58  58  98 S5        29.86R FOG
NEWARK         MOCLDY    62  60  93 SW3       29.85R
MARION         CLEAR     62  58  86 W7        29.85R FOG
LANCASTER      MOCLDY    62  59  90 CALM      29.86S FOG
ZANESVILLE     CLOUDY    61  58  90 SW5       29.86R FOG
NEW PHILLY     CLOUDY    62  60  93 CALM      29.85R
$$



USA.gov is the U.S. government's official web portal to all federal, state and local government web resources and services.